Time,TemperatureF,DewpointF,PressureIn,WindDirection,WindDirectionDegrees,WindSpeedMPH,WindSpeedGustMPH,Humidity,HourlyPrecipIn,Conditions,Clouds,dailyrainin,SoftwareType,DateUTC
2013-01-03 00:03:00,54.0,54.0,30.06,West,273,1.0,1.0,97,-99.99,,,-99.99,,2013-01-03 05:03:00,
2013-01-03 00:12:00,54.0,54.0,30.06,West,273,1.0,1.0,97,-99.99,,,-99.99,,2013-01-03 05:12:00,
2013-01-03 00:23:00,56.0,55.0,30.05,SE,136,2.0,3.0,97,-99.99,,,-99.99,,2013-01-03 05:23:00,
2013-01-03 00:33:00,56.0,55.0,30.05,SE,136,2.0,3.0,97,-99.99,,,-99.99,,2013-01-03 05:33:00,
2013-01-03 00:42:00,56.0,56.0,30.05,SE,125,1.0,2.0,97,-99.99,,,-99.99,,2013-01-03 05:42:00,
2013-01-03 00:53:00,56.0,56.0,30.05,SE,125,1.0,2.0,97,-99.99,,,-99.99,,2013-01-03 05:53:00,
2013-01-03 01:03:00,56.0,55.0,30.04,NNE,23,1.0,2.0,97,-99.99,,,-99.99,,2013-01-03 06:03:00,
2013-01-03 01:12:00,56.0,55.0,30.04,NNE,23,1.0,2.0,97,-99.99,,,-99.99,,2013-01-03 06:12:00,
2013-01-03 01:22:00,56.0,55.0,30.04,NNE,33,2.0,3.0,97,-99.99,,,-99.99,,2013-01-03 06:22:00,
2013-01-03 01:33:00,56.0,55.0,30.04,NNE,33,2.0,3.0,97,-99.99,,,-99.99,,2013-01-03 06:33:00,
2013-01-03 01:42:00,56.0,55.0,30.03,East,88,1.0,2.0,97,-99.99,,,-99.99,,2013-01-03 06:42:00,
2013-01-03 01:53:00,56.0,55.0,30.03,East,88,1.0,2.0,97,-99.99,,,-99.99,,2013-01-03 06:53:00,
2013-01-03 02:02:00,57.0,57.0,30.02,NE,54,1.0,3.0,98,-99.99,,,-99.99,,2013-01-03 07:02:00,
2013-01-03 02:12:00,57.0,57.0,30.02,NE,54,1.0,3.0,98,-99.99,,,-99.99,,2013-01-03 07:12:00,
2013-01-03 02:22:00,58.0,58.0,30.01,NNE,32,1.0,2.0,98,-99.99,,,-99.99,,2013-01-03 07:22:00,
2013-01-03 02:33:00,58.0,58.0,30.01,NNE,32,1.0,2.0,98,-99.99,,,-99.99,,2013-01-03 07:33:00,
2013-01-03 02:43:00,59.0,59.0,30.00,NNE,23,2.0,3.0,98,-99.99,,,-99.99,,2013-01-03 07:43:00,
2013-01-03 02:53:00,59.0,59.0,30.00,NNE,23,2.0,3.0,98,-99.99,,,-99.99,,2013-01-03 07:53:00,
2013-01-03 03:02:00,60.0,59.0,29.98,East,89,1.0,2.0,98,-99.99,,,-99.99,,2013-01-03 08:02:00,
2013-01-03 03:12:00,60.0,59.0,29.98,East,89,1.0,2.0,98,-99.99,,,-99.99,,2013-01-03 08:12:00,
2013-01-03 03:22:00,60.0,59.0,29.98,SSE,163,1.0,1.0,98,-99.99,,,-99.99,,2013-01-03 08:22:00,
2013-01-03 03:33:00,60.0,59.0,29.98,SSE,163,1.0,1.0,98,-99.99,,,-99.99,,2013-01-03 08:33:00,
2013-01-03 03:43:00,60.0,59.0,29.98,West,262,1.0,2.0,98,-99.99,,,-99.99,,2013-01-03 08:43:00,
2013-01-03 03:53:00,60.0,59.0,29.98,West,262,1.0,2.0,98,-99.99,,,-99.99,,2013-01-03 08:53:00,
2013-01-03 04:03:00,60.0,60.0,29.97,ENE,60,2.0,3.0,98,-99.99,,,-99.99,,2013-01-03 09:03:00,
2013-01-03 04:12:00,60.0,60.0,29.97,ENE,60,2.0,3.0,98,-99.99,,,-99.99,,2013-01-03 09:12:00,
2013-01-03 04:22:00,61.0,60.0,29.97,SSE,164,1.0,3.0,98,-99.99,,,-99.99,,2013-01-03 09:22:00,
2013-01-03 04:33:00,61.0,60.0,29.97,SSE,164,1.0,3.0,98,-99.99,,,-99.99,,2013-01-03 09:33:00,
2013-01-03 04:43:00,61.0,61.0,29.96,ENE,68,3.0,5.0,98,-99.99,,,-99.99,,2013-01-03 09:43:00,
2013-01-03 04:53:00,61.0,61.0,29.96,ENE,68,3.0,5.0,98,-99.99,,,-99.99,,2013-01-03 09:53:00,
2013-01-03 05:02:00,61.0,61.0,29.96,East,96,1.0,2.0,98,-99.99,,,-99.99,,2013-01-03 10:02:00,
2013-01-03 05:12:00,61.0,61.0,29.96,East,96,1.0,2.0,98,-99.99,,,-99.99,,2013-01-03 10:12:00,
2013-01-03 05:23:00,61.0,61.0,29.95,SE,137,1.0,2.0,98,-99.99,,,-99.99,,2013-01-03 10:23:00,
2013-01-03 05:33:00,61.0,61.0,29.95,SE,137,1.0,2.0,98,-99.99,,,-99.99,,2013-01-03 10:33:00,
2013-01-03 05:43:00,61.0,60.0,29.95,SE,130,1.0,2.0,98,-99.99,,,-99.99,,2013-01-03 10:43:00,
2013-01-03 05:53:00,61.0,60.0,29.95,SE,130,1.0,2.0,98,-99.99,,,-99.99,,2013-01-03 10:53:00,
2013-01-03 06:03:00,59.0,59.0,29.97,SE,137,1.0,2.0,98,-99.99,,,-99.99,,2013-01-03 11:03:00,
2013-01-03 06:12:00,59.0,58.0,29.98,ESE,111,1.0,1.0,98,-99.99,,,-99.99,,2013-01-03 11:12:00,
2013-01-03 06:23:00,59.0,58.0,29.98,ESE,111,1.0,1.0,98,-99.99,,,-99.99,,2013-01-03 11:23:00,
2013-01-03 06:33:00,58.0,58.0,29.99,SSE,158,1.0,2.0,98,-99.99,,,-99.99,,2013-01-03 11:33:00,
2013-01-03 06:43:00,58.0,58.0,29.99,SSE,158,1.0,2.0,98,-99.99,,,-99.99,,2013-01-03 11:43:00,
2013-01-03 06:53:00,56.0,56.0,30.02,SSE,149,0.0,1.0,98,-99.99,,,-99.99,,2013-01-03 11:53:00,
2013-01-03 07:03:00,56.0,56.0,30.02,SSE,149,0.0,1.0,98,-99.99,,,-99.99,,2013-01-03 12:03:00,
2013-01-03 07:12:00,55.0,55.0,30.04,ESE,117,0.0,1.0,98,-99.99,,,-99.99,,2013-01-03 12:12:00,
2013-01-03 07:22:00,55.0,55.0,30.04,ESE,117,0.0,1.0,98,-99.99,,,-99.99,,2013-01-03 12:22:00,
2013-01-03 07:33:00,55.0,54.0,30.04,SE,130,1.0,1.0,98,-99.99,,,-99.99,,2013-01-03 12:33:00,
2013-01-03 07:42:00,55.0,54.0,30.04,SE,130,1.0,1.0,98,-99.99,,,-99.99,,2013-01-03 12:42:00,
2013-01-03 07:53:00,56.0,55.0,30.05,East,86,1.0,2.0,98,-99.99,,,-99.99,,2013-01-03 12:53:00,
2013-01-03 08:02:00,56.0,55.0,30.05,East,86,1.0,2.0,98,-99.99,,,-99.99,,2013-01-03 13:02:00,
2013-01-03 08:13:00,56.0,56.0,30.04,SE,134,2.0,3.0,98,-99.99,,,-99.99,,2013-01-03 13:13:00,
2013-01-03 08:22:00,56.0,56.0,30.04,SE,134,2.0,3.0,98,-99.99,,,-99.99,,2013-01-03 13:22:00,
2013-01-03 08:33:00,58.0,58.0,30.04,SE,130,2.0,3.0,98,-99.99,,,-99.99,,2013-01-03 13:33:00,
2013-01-03 08:42:00,58.0,58.0,30.04,SE,130,2.0,3.0,98,-99.99,,,-99.99,,2013-01-03 13:42:00,
2013-01-03 08:53:00,61.0,61.0,30.01,ESE,104,2.0,4.0,98,-99.99,,,-99.99,,2013-01-03 13:53:00,
2013-01-03 09:03:00,61.0,61.0,30.01,ESE,104,2.0,4.0,98,-99.99,,,-99.99,,2013-01-03 14:03:00,
2013-01-03 09:12:00,61.0,61.0,30.01,ESE,104,2.0,4.0,98,-99.99,,,-99.99,,2013-01-03 14:12:00,
2013-01-03 09:23:00,62.0,61.0,29.99,East,92,2.0,4.0,98,-99.99,,,-99.99,,2013-01-03 14:23:00,
2013-01-03 09:33:00,62.0,61.0,29.99,East,92,2.0,4.0,98,-99.99,,,-99.99,,2013-01-03 14:33:00,
2013-01-03 09:43:00,63.0,63.0,29.97,East,92,3.0,4.0,98,-99.99,,,-99.99,,2013-01-03 14:43:00,
2013-01-03 09:53:00,63.0,63.0,29.97,East,92,3.0,4.0,98,-99.99,,,-99.99,,2013-01-03 14:53:00,
2013-01-03 10:03:00,66.0,66.0,29.94,ENE,68,2.0,5.0,98,-99.99,,,-99.99,,2013-01-03 15:03:00,
2013-01-03 10:13:00,66.0,66.0,29.94,ENE,68,2.0,5.0,98,-99.99,,,-99.99,,2013-01-03 15:13:00,
2013-01-03 10:23:00,67.0,67.0,29.93,East,84,2.0,5.0,97,-99.99,,,-99.99,,2013-01-03 15:23:00,
2013-01-03 10:33:00,67.0,67.0,29.93,East,84,2.0,5.0,97,-99.99,,,-99.99,,2013-01-03 15:33:00,
2013-01-03 10:43:00,69.0,68.0,29.94,ESE,106,3.0,6.0,95,-99.99,,,-99.99,,2013-01-03 15:43:00,
2013-01-03 10:53:00,69.0,68.0,29.94,ESE,106,3.0,6.0,95,-99.99,,,-99.99,,2013-01-03 15:53:00,
2013-01-03 11:03:00,75.0,68.0,30.03,SE,145,5.0,8.0,79,-99.99,,,-99.99,,2013-01-03 16:03:00,
2013-01-03 11:12:00,75.0,68.0,30.03,SE,145,5.0,8.0,79,-99.99,,,-99.99,,2013-01-03 16:12:00,
2013-01-03 11:23:00,76.0,69.0,30.08,SE,146,5.0,9.0,76,-99.99,,,-99.99,,2013-01-03 16:23:00,
2013-01-03 11:33:00,76.0,69.0,30.08,SE,146,5.0,9.0,76,-99.99,,,-99.99,,2013-01-03 16:33:00,
2013-01-03 11:43:00,77.0,68.0,30.10,SSE,156,6.0,12.0,75,-99.99,,,-99.99,,2013-01-03 16:43:00,
2013-01-03 11:53:00,77.0,68.0,30.10,SSE,156,6.0,12.0,75,-99.99,,,-99.99,,2013-01-03 16:53:00,
2013-01-03 12:03:00,79.0,68.0,30.10,South,170,8.0,15.0,67,-99.99,,,-99.99,,2013-01-03 17:03:00,
2013-01-03 12:13:00,79.0,68.0,30.10,South,170,8.0,15.0,67,-99.99,,,-99.99,,2013-01-03 17:13:00,
2013-01-03 12:23:00,80.0,68.0,30.09,South,169,8.0,14.0,64,-99.99,,,-99.99,,2013-01-03 17:23:00,
2013-01-03 12:33:00,80.0,68.0,30.09,South,169,8.0,14.0,64,-99.99,,,-99.99,,2013-01-03 17:33:00,
2013-01-03 12:43:00,81.0,67.0,30.08,South,183,7.0,13.0,60,-99.99,,,-99.99,,2013-01-03 17:43:00,
2013-01-03 12:53:00,81.0,67.0,30.08,South,183,7.0,13.0,60,-99.99,,,-99.99,,2013-01-03 17:53:00,
2013-01-03 13:03:00,81.0,65.0,30.07,SSW,196,8.0,18.0,57,-99.99,,,-99.99,,2013-01-03 18:03:00,
2013-01-03 13:13:00,81.0,65.0,30.07,SSW,196,8.0,18.0,57,-99.99,,,-99.99,,2013-01-03 18:13:00,
2013-01-03 13:22:00,82.0,65.0,30.06,South,186,9.0,17.0,55,-99.99,,,-99.99,,2013-01-03 18:22:00,
2013-01-03 13:33:00,82.0,65.0,30.06,South,186,9.0,17.0,55,-99.99,,,-99.99,,2013-01-03 18:33:00,
2013-01-03 13:43:00,82.0,63.0,30.05,SSW,200,10.0,18.0,52,-99.99,,,-99.99,,2013-01-03 18:43:00,
2013-01-03 13:53:00,82.0,64.0,30.04,South,173,10.0,16.0,54,-99.99,,,-99.99,,2013-01-03 18:53:00,
2013-01-03 14:03:00,82.0,64.0,30.04,South,173,10.0,16.0,54,-99.99,,,-99.99,,2013-01-03 19:03:00,
2013-01-03 14:13:00,82.0,64.0,30.04,South,173,10.0,16.0,54,-99.99,,,-99.99,,2013-01-03 19:13:00,
2013-01-03 14:56:00,82.0,63.0,30.03,SSW,196,9.0,17.0,51,-99.99,,,-99.99,,2013-01-03 19:56:00,
2013-01-03 15:03:00,82.0,62.0,30.04,SSW,195,9.0,19.0,49,-99.99,,,-99.99,,2013-01-03 20:03:00,
2013-01-03 15:13:00,82.0,62.0,30.04,SSW,195,9.0,19.0,49,-99.99,,,-99.99,,2013-01-03 20:13:00,
2013-01-03 15:23:00,82.0,62.0,30.04,SSW,200,8.0,13.0,50,-99.99,,,-99.99,,2013-01-03 20:23:00,
2013-01-03 15:33:00,82.0,62.0,30.04,SSW,200,8.0,13.0,50,-99.99,,,-99.99,,2013-01-03 20:33:00,
2013-01-03 15:43:00,82.0,61.0,30.04,SSW,195,9.0,18.0,49,-99.99,,,-99.99,,2013-01-03 20:43:00,
2013-01-03 15:53:00,82.0,61.0,30.04,SSW,195,9.0,18.0,49,-99.99,,,-99.99,,2013-01-03 20:53:00,
2013-01-03 16:03:00,81.0,61.0,30.03,SSW,204,8.0,16.0,50,-99.99,,,-99.99,,2013-01-03 21:03:00,
2013-01-03 16:13:00,81.0,61.0,30.03,SSW,204,8.0,16.0,50,-99.99,,,-99.99,,2013-01-03 21:13:00,
2013-01-03 16:23:00,81.0,61.0,30.04,SSW,203,9.0,17.0,50,-99.99,,,-99.99,,2013-01-03 21:23:00,
2013-01-03 16:37:00,81.0,61.0,30.04,SSW,203,9.0,17.0,50,-99.99,,,-99.99,,2013-01-03 21:37:00,
2013-01-03 16:50:00,80.0,62.0,30.04,SSW,197,8.0,13.0,52,-99.99,,,-99.99,,2013-01-03 21:50:00,
2013-01-03 17:03:00,79.0,65.0,30.05,SW,217,6.0,12.0,61,-99.99,,,-99.99,,2013-01-03 22:03:00,
2013-01-03 17:12:00,79.0,65.0,30.05,SW,217,6.0,12.0,61,-99.99,,,-99.99,,2013-01-03 22:12:00,
2013-01-03 17:22:00,79.0,66.0,30.05,SSW,211,6.0,10.0,64,-99.99,,,-99.99,,2013-01-03 22:22:00,
2013-01-03 17:33:00,79.0,66.0,30.05,SSW,211,6.0,10.0,64,-99.99,,,-99.99,,2013-01-03 22:33:00,
2013-01-03 17:43:00,78.0,67.0,30.04,SSW,194,5.0,9.0,67,-99.99,,,-99.99,,2013-01-03 22:43:00,
2013-01-03 17:53:00,78.0,67.0,30.04,SSW,194,5.0,9.0,67,-99.99,,,-99.99,,2013-01-03 22:53:00,
2013-01-03 18:03:00,76.0,67.0,30.05,SSW,203,4.0,8.0,73,-99.99,,,-99.99,,2013-01-03 23:03:00,
2013-01-03 18:12:00,76.0,67.0,30.05,SSW,203,4.0,8.0,73,-99.99,,,-99.99,,2013-01-03 23:12:00,
2013-01-03 18:23:00,74.0,67.0,30.05,SSW,208,4.0,7.0,78,-99.99,,,-99.99,,2013-01-03 23:23:00,
2013-01-03 18:33:00,74.0,67.0,30.05,SSW,208,4.0,7.0,78,-99.99,,,-99.99,,2013-01-03 23:33:00,
2013-01-03 18:43:00,72.0,67.0,30.06,South,183,2.0,4.0,81,-99.99,,,-99.99,,2013-01-03 23:43:00,
2013-01-03 18:53:00,72.0,67.0,30.06,South,183,2.0,4.0,81,-99.99,,,-99.99,,2013-01-03 23:53:00,
2013-01-03 19:03:00,67.0,64.0,30.08,SSW,205,1.0,1.0,89,-99.99,,,-99.99,,2013-01-04 00:03:00,
2013-01-03 19:13:00,67.0,64.0,30.08,SSW,205,1.0,1.0,89,-99.99,,,-99.99,,2013-01-04 00:13:00,
2013-01-03 19:23:00,65.0,62.0,30.09,NNW,331,1.0,2.0,91,-99.99,,,-99.99,,2013-01-04 00:23:00,
2013-01-03 19:33:00,65.0,62.0,30.09,NNW,331,1.0,2.0,91,-99.99,,,-99.99,,2013-01-04 00:33:00,
2013-01-03 19:42:00,64.0,62.0,30.09,SE,125,0.0,1.0,92,-99.99,,,-99.99,,2013-01-04 00:42:00,
2013-01-03 19:53:00,64.0,62.0,30.09,SE,125,0.0,1.0,92,-99.99,,,-99.99,,2013-01-04 00:53:00,
2013-01-03 20:02:00,61.0,59.0,30.10,SW,215,1.0,2.0,93,-99.99,,,-99.99,,2013-01-04 01:02:00,
2013-01-03 20:13:00,61.0,59.0,30.10,SW,215,1.0,2.0,93,-99.99,,,-99.99,,2013-01-04 01:13:00,
2013-01-03 20:22:00,61.0,60.0,30.11,NNW,330,1.0,2.0,95,-99.99,,,-99.99,,2013-01-04 01:22:00,
2013-01-03 20:33:00,61.0,60.0,30.11,NNW,330,1.0,2.0,95,-99.99,,,-99.99,,2013-01-04 01:33:00,
2013-01-03 20:42:00,61.0,60.0,30.11,NNW,335,1.0,2.0,95,-99.99,,,-99.99,,2013-01-04 01:42:00,
2013-01-03 20:53:00,61.0,60.0,30.11,NNW,335,1.0,2.0,95,-99.99,,,-99.99,,2013-01-04 01:53:00,
2013-01-03 21:02:00,60.0,58.0,30.12,SE,129,1.0,1.0,95,-99.99,,,-99.99,,2013-01-04 02:02:00,
2013-01-03 21:12:00,60.0,58.0,30.12,SE,129,1.0,1.0,95,-99.99,,,-99.99,,2013-01-04 02:12:00,
2013-01-03 21:22:00,59.0,58.0,30.12,South,189,1.0,1.0,95,-99.99,,,-99.99,,2013-01-04 02:22:00,
2013-01-03 21:33:00,59.0,58.0,30.12,South,189,1.0,1.0,95,-99.99,,,-99.99,,2013-01-04 02:33:00,
2013-01-03 21:42:00,60.0,59.0,30.11,SSE,148,3.0,5.0,96,-99.99,,,-99.99,,2013-01-04 02:42:00,
2013-01-03 21:53:00,60.0,59.0,30.11,SSE,148,3.0,5.0,96,-99.99,,,-99.99,,2013-01-04 02:53:00,
2013-01-03 22:03:00,59.0,58.0,30.11,SE,135,2.0,3.0,97,-99.99,,,-99.99,,2013-01-04 03:03:00,
2013-01-03 22:12:00,59.0,58.0,30.11,SE,135,2.0,3.0,97,-99.99,,,-99.99,,2013-01-04 03:12:00,
2013-01-03 22:22:00,60.0,59.0,30.12,ENE,73,1.0,2.0,97,-99.99,,,-99.99,,2013-01-04 03:22:00,
2013-01-03 22:33:00,60.0,59.0,30.12,ENE,73,1.0,2.0,97,-99.99,,,-99.99,,2013-01-04 03:33:00,
2013-01-03 22:43:00,59.0,59.0,30.12,ESE,114,1.0,2.0,97,-99.99,,,-99.99,,2013-01-04 03:43:00,
2013-01-03 22:53:00,59.0,59.0,30.12,ESE,114,1.0,2.0,97,-99.99,,,-99.99,,2013-01-04 03:53:00,
2013-01-03 23:02:00,58.0,57.0,30.12,SE,130,2.0,2.0,97,-99.99,,,-99.99,,2013-01-04 04:02:00,
2013-01-03 23:12:00,58.0,57.0,30.12,SE,130,2.0,2.0,97,-99.99,,,-99.99,,2013-01-04 04:12:00,
2013-01-03 23:22:00,58.0,58.0,30.12,East,100,2.0,3.0,97,-99.99,,,-99.99,,2013-01-04 04:22:00,
2013-01-03 23:32:00,58.0,58.0,30.12,East,100,2.0,3.0,97,-99.99,,,-99.99,,2013-01-04 04:32:00,
2013-01-03 23:42:00,58.0,58.0,30.12,ESE,116,2.0,3.0,97,-99.99,,,-99.99,,2013-01-04 04:42:00,
2013-01-03 23:53:00,58.0,58.0,30.12,ESE,116,2.0,3.0,97,-99.99,,,-99.99,,2013-01-04 04:53:00,